Tracking 27112 objects as of 27-Mar-2023
HD Live streaming from Space Station
objects crossing your sky now

STARLINK-3716

Track STARLINK-3716 now!
10-day predictions
STARLINK-3716 is classified as:


NORAD ID: 52092
Int'l Code: 2022-029E
Perigee: 546.2 km
Apogee: 547.5 km
Inclination: 53.2 °
Period: 95.4 minutes
Semi major axis: 6917 km
RCS: Unknown
Launch date: March 19, 2022
Source: United States (US)
Launch site: AIR FORCE EASTERN TEST RANGE (AFETR)
Your satellite tracking list
Your tracking list is empty




NASA's NSSDC Master Catalog

Two Line Element Set (TLE):
1 52092U 22029E   23085.89854345  .00028399  00000-0  17949-2 0  9990
2 52092  53.2150 252.0039 0000983 118.6664 241.4427 15.08847434 57795
Source of the keplerian elements: AFSPC